CAPE
49 47 41 24 14 13 9 13 15 18 25 17 21 23 37 18 24 28 13 6 7 11 13 2 72 15 7 0 0 0 2 4 0 0 0 0 0 0 0 0 0 0 0 0 0 0 0
58 57 72 108 132 36 30 12 29 25 27 38 18 5 21 13 22 20 10 1 3 6 7 0 6 0 0 0 0 0 0 6 0 0 0 0 0 0 0 0 0 0 0 0 0 0 0
34 51 69 125 146 146 92 81 54 33 34 25 29 6 10 19 18 5 5 1 1 0 2 0 25 0 0 0 1 6 0 0 0 0 0 0 0 0 0 0 0 0 0 0 0 0 0
49 93 1 0 14 15 31 211 77 34 39 40 42 27 16 31 12 3 3 0 0 0 50 95 14 0 0 0 5 0 0 0 0 0 0 0 0 0 2 0 0 0 0 0 0 0 0
0 23 40 31 14 12 8 27 12 17 28 28 30 43 36 30 24 3 2 0 0 32 219 181 0 0 0 12 0 0 0 0 0 0 0 0 5 0 1 0 1 0 0 0 0 0 0
7 12 8 26 24 15 29 25 19 15 21 22 42 57 46 34 29 3 0 0 0 167 53 1 5 0 1 0 1 0 0 0 1 2 1 5 5 0 0 1 0 0 0 0 0 0 0
4 1 6 11 6 28 43 53 39 33 57 78 61 56 55 67 42 17 0 0 0 0 19 0 0 0 0 0 0 0 0 0 0 1 0 1 1 0 0 0 0 0 0 0 0 0 1
0 2 14 13 13 19 11 33 57 58 50 45 75 91 74 28 19 32 0 0 1 0 0 25 4 3 0 0 4 2 0 0 0 0 0 1 0 0 0 0 0 0 0 0 0 0 0
3 14 17 7 11 26 26 35 20 8 24 61 83 68 46 31 5 0 0 2 1 3 1 5 7 3 0 2 0 0 0 0 0 0 0 0 0 0 0 0 0 0 0 0 0 0 0
5 7 9 7 14 25 44 63 61 51 63 71 51 41 10 0 0 0 1 9 2 10 0 0 2 7 1 1 0 0 0 5 7 2 7 3 0 0 0 0 0 1 0 1 9 1 0
8 5 8 4 12 18 20 42 63 57 9 16 11 0 0 0 0 0 0 5 4 1 0 2 1 0 1 0 0 0 0 16 5 0 4 0 0 3 0 0 0 0 2 4 0 1 0
2 4 9 10 14 8 29 29 33 27 25 5 0 0 0 0 0 0 0 6 0 0 0 0 0 3 0 3 3 18 9 8 6 2 0 0 0 1 0 0 0 0 0 0 0 1 0
2 6 4 13 11 5 23 43 32 1 1 0 1 4 0 0 0 0 0 0 0 0 0 0 6 0 0 0 1 2 0 0 0 0 0 1 2 0 0 1 0 0 1 0 0 0 0
1 8 9 12 10 14 14 21 28 5 4 1 1 0 0 0 0 0 0 0 0 2 2 1 0 0 0 0 3 1 1 0 2 2 0 0 0 0 0 0 0 3 0 0 0 0 0
2 3 11 9 8 7 8 7 22 7 5 2 0 0 0 0 0 0 0 0 1 1 8 0 0 2 0 2 1 4 3 0 2 0 0 0 0 0 0 1 1 4 0 0 0 0 0
2 3 4 7 7 4 7 1 0 2 0 0 0 0 0 0 0 0 0 0 4 0 1 0 0 0 0 1 0 0 0 0 1 0 0 1 0 0 0 0 0 0 3 0 0 0 0
1 2 4 4 6 5 2 5 0 0 0 0 0 0 0 0 0 0 1 1 0 0 0 0 0 0 0 0 1 2 0 0 0 0 0 0 0 0 1 0 0 0 0 0 0 0 0
0 0 3 3 6 5 4 1 0 0 0 0 0 0 0 0 0 0 0 0 0 0 0 0 0 0 0 0 0 0 0 0 0 0 0 0 0 0 0 0 0 0 0 0 0 0 0
0 0 4 3 0 5 5 2 0 0 0 0 0 0 0 0 0 0 0 0 0 0 0 0 0 0 0 0 0 0 0 0 0 0 0 0 0 0 0 0 0 0 0 0 0 0 0
0 0 4 3 2 2 5 7 0 0 0 0 0 0 0 0 0 0 0 0 0 0 0 0 0 0 0 0 0 0 0 0 0 0 0 0 0 0 0 0 0 0 0 0 0 0 0
0 0 1 4 2 2 0 0 3 0 0 0 0 0 0 0 0 0 0 0 0 0 0 0 0 0 0 0 0 0 0 0 0 0 0 0 0 0 0 0 0 0 0 0 0 0 0
0 0 0 2 2 2 3 1 0 0 0 0 0 0 0 0 0 0 0 0 0 0 0 0 0 0 0 0 0 0 0 0 0 0 0 0 0 0 0 0 0 0 0 0 0 0 0
0 0 0 1 1 2 1 2 3 0 0 0 0 0 0 0 0 0 0 0 0 0 0 0 0 0 0 0 0 0 0 0 0 0 0 0 0 0 0 0 0 0 0 0 0 0 0
0 0 0 1 2 3 5 5 8 0 0 0 0 0 0 0 0 0 0 0 0 0 0 0 0 0 0 0 0 0 0 0 0 0 0 0 0 0 0 0 0 0 0 0 0 0 0
0 0 0 1 2 3 0 0 1 0 0 0 0 0 0 0 0 0 0 0 0 0 0 0 0 0 0 0 0 0 0 0 0 0 0 0 0 0 0 0 0 0 0 0 0 0 0
0 0 0 0 0 4 0 0 0 0 0 0 0 0 0 0 0 0 0 0 0 0 0 0 0 0 0 0 0 0 0 0 0 0 0 0 0 0 0 0 0 0 0 0 0 0 0
0 0 0 0 1 1 0 0 0 0 0 0 0 0 0 0 0 0 0 0 0 0 0 0 0 0 0 0 0 0 0 0 0 0 0 0 0 0 0 0 0 0 0 0 0 0 0
0 0 0 0 1 0 0 0 0 0 0 0 0 0 0 0 0 0 0 0 0 0 0 0 0 0 0 0 0 0 0 0 0 0 0 0 0 0 0 0 0 0 0 0 0 0 0
0 0 0 0 0 1 0 0 0 0 0 0 0 0 0 0 0 0 0 0 0 0 0 0 0 0 0 0 0 0 0 0 0 0 0 0 0 0 0 0 0 0 0 0 0 0 0
CIN
-0 -0 -0 -1 -1 -1 -3 -3 -2 -1 -0 -0 -0 -1 -0 -0 -0 -0 -1 -0 -0 -0 -0 -0 -2 0 -1 0 0 0 -0 -0 0 0 0 0 0 0 0 0 0 0 0 0 0 0 0
-1 -0 -0 -0 0 -23 -0 -1 -1 -1 -0 -0 -0 -0 -0 -0 -0 -0 -0 0 -0 -0 -0 0 0 -6 0 0 0 0 0 -8 0 0 0 0 0 0 0 0 0 0 0 0 0 0 0
-0 -0 -0 -0 0 -0 -2 0 -0 -1 -0 -2 -1 -2 0 -0 -0 -0 -1 -0 -0 -0 -0 0 -8 0 0 0 -15 -13 0 -1 0 0 0 0 0 0 0 0 0 0 0 0 0 0 0
-0 -1 -4 0 -0 -0 -5 -0 0 -1 0 -1 -1 -2 -2 -0 -0 -0 -0 0 0 0 -71 -8 -12 0 0 0 -19 -5 0 0 0 0 0 0 0 -1 -4 0 0 0 0 0 0 0 0
-2 -1 -6 -1 -0 -0 -0 -0 -0 -0 -0 -1 -2 -1 -0 -0 -0 -0 -0 0 0 -106 -6 -0 -0 0 0 -12 0 0 0 0 0 0 0 -2 -7 0 -3 -2 -0 -0 0 0 0 0 0
-1 -26 -27 -0 -0 -0 -0 -0 -0 -0 -0 -1 -0 -0 -0 -0 -4 -4 -0 -19 0 -1 -12 -13 -3 0 -0 0 -1 0 0 0 -12 -3 -0 -4 -4 -1 -1 -0 0 0 0 0 0 0 0
-0 -0 -1 -0 -0 -1 -0 -0 -0 -1 -0 -0 0 -0 -0 -6 -13 -16 0 0 0 -0 -58 -0 0 -0 0 0 -3 -1 0 0 -1 -0 -0 -2 -1 0 0 0 0 0 0 0 0 0 -0
-0 -1 -1 -0 -0 -0 -0 -0 -0 -0 -0 -1 -0 -0 -1 -22 -41 -19 0 0 -0 0 0 -30 -2 -2 -0 0 -5 -10 0 0 -1 0 0 -0 0 0 0 0 0 0 0 0 0 0 0
-0 -1 -0 -0 -1 -0 -0 -1 -0 -9 -9 -2 0 -0 -15 -53 -30 0 0 -1 -2 -5 0 -1 -0 -0 0 -4 0 0 0 0 -6 -7 0 0 0 0 0 0 0 0 0 0 0 0 0
-0 -1 -1 -1 -0 -0 -0 -0 -0 -1 -0 -3 -6 -5 -11 0 0 0 -0 -5 -5 -0 0 0 0 -0 -1 -15 -2 0 0 -12 -4 -6 -1 -4 0 0 0 0 0 0 0 -20 -1 -0 -0
-0 -1 -1 -1 -0 -0 -0 -1 -0 -0 -5 -52 -47 0 0 0 0 0 0 -6 -8 0 0 0 0 -1 -7 -0 -1 0 -21 -10 -4 -0 -1 -0 -0 0 0 0 0 0 -5 -2 0 0 0
-0 -0 -1 -0 -0 -2 -1 -0 -0 -0 -1 -1 0 0 0 0 0 0 0 -4 -0 0 0 0 -0 0 0 -5 -0 -1 -7 -9 -12 -6 0 0 -3 -3 0 0 0 0 0 0 0 0 0
-0 -0 -0 -0 -0 -0 -1 -0 -0 -0 -0 0 -2 -0 0 0 0 0 0 0 0 0 0 0 0 0 0 0 -1 -3 -0 0 -0 -0 0 0 0 -3 0 0 0 0 0 0 0 0 0
-0 -1 -0 -0 -0 -0 -1 -1 -0 -0 -0 -0 0 0 0 0 0 0 0 0 0 -2 0 0 0 0 0 0 -3 -3 0 0 -1 -0 0 0 0 0 0 0 -1 0 0 0 0 0 0
-0 -0 -0 -0 -0 -0 -0 -0 -0 -0 -4 -5 0 0 0 0 0 0 0 0 0 -1 -2 0 -0 0 0 -0 -0 -0 0 0 -1 0 0 -0 0 0 0 -22 -0 -0 0 -0 0 0 0
-0 -0 -0 -0 -0 -0 -0 -0 0 -2 0 0 0 0 0 0 0 0 0 -1 -0 0 -0 -0 0 0 0 -0 0 0 0 0 -0 0 0 0 0 0 0 0 0 -0 -0 0 0 0 0
0 -0 -0 -0 -0 -0 -0 -0 0 0 0 0 0 0 0 0 0 0 0 0 0 0 0 0 0 0 0 0 0 -0 0 0 0 0 0 0 0 0 -46 0 0 0 -0 0 0 0 0
-0 -0 -0 -0 -0 -0 -0 -0 -0 0 0 0 0 0 0 0 0 0 0 0 0 0 0 0 0 0 0 0 -1 0 0 0 0 0 0 0 0 -2 0 0 0 0 0 0 0 0 0
-0 0 -0 -0 0 -0 -0 0 0 0 0 0 0 0 0 0 0 0 0 0 0 0 0 0 0 0 0 0 0 0 0 0 0 0 0 0 0 0 0 0 0 0 0 0 0 0 0
0 0 0 0 -0 -0 -0 -0 0 0 0 0 0 0 0 0 0 0 0 0 0 0 0 0 0 0 0 0 0 0 0 0 0 0 0 0 0 0 0 0 0 0 0 0 0 0 0
0 0 -0 -0 0 -0 -0 0 0 0 0 0 0 0 0 0 0 0 0 0 0 0 0 0 0 0 0 0 0 0 0 0 0 0 0 0 0 0 0 0 0 0 0 0 0 0 0
0 0 0 -0 0 0 -0 -1 0 0 0 0 0 0 0 0 0 0 0 0 0 0 0 0 0 0 0 0 0 0 0 0 0 0 0 0 0 0 0 0 0 0 0 0 0 0 0
0 0 0 -0 -0 0 -0 -1 -2 0 0 0 0 0 0 0 0 0 0 0 0 0 0 0 0 0 0 0 0 0 0 0 0 0 0 0 0 0 0 0 0 0 0 0 0 0 0
0 0 0 0 -0 0 -1 -2 -0 0 0 0 0 0 0 0 0 0 0 0 0 0 0 0 0 0 0 0 0 0 0 0 0 0 0 0 0 0 0 0 0 0 0 0 0 0 0
0 0 0 -0 0 0 0 0 -0 0 0 0 0 0 0 0 0 0 0 0 0 0 0 0 0 0 0 0 0 0 0 0 0 0 0 0 0 0 0 0 0 0 0 0 0 0 0
0 0 0 0 -1 0 0 0 0 0 0 0 0 0 0 0 0 0 0 0 0 0 0 0 0 0 0 0 0 0 0 0 0 0 0 0 0 0 0 0 0 0 0 0 0 0 0
0 0 0 0 -1 0 0 0 0 0 0 0 0 0 0 0 0 0 0 0 0 0 0 0 0 0 0 0 0 0 0 0 0 0 0 0 0 0 0 0 0 0 0 0 0 0 0
0 0 0 0 -1 0 0 0 0 0 0 0 0 0 0 0 0 0 0 0 0 0 0 0 0 0 0 0 0 0 0 0 0 0 0 0 0 0 0 0 0 0 0 0 0 0 0
0 0 0 0 0 -3 0 0 0 0 0 0 0 0 0 0 0 0 0 0 0 0 0 0 0 0 0 0 0 0 0 0 0 0 0 0 0 0 0 0 0 0 0 0 0 0 0
Wind_Speed
40 39 36 33 34 33 32 30 32 33 31 30 30 32 32 31 32 31 32 33 33 31 29 29 9 7 11 18 21 12 4 3 6 8 10 14 16 18 22 22 24 25 32 33 37 41 43
38 33 37 38 37 35 29 31 30 30 28 27 26 27 29 30 31 31 31 31 31 30 30 28 6 8 15 22 13 3 4 5 9 10 12 14 16 16 22 24 25 24 32 35 37 42 42
36 37 40 38 39 42 46 29 30 26 24 22 25 27 29 30 30 30 32 33 33 35 29 9 7 13 20 19 13 3 5 8 8 10 13 15 15 17 20 26 25 30 37 38 38 40 40
39 44 49 51 51 56 57 54 25 26 26 24 25 27 29 30 31 31 33 33 33 31 11 5 6 12 20 16 13 4 7 7 8 10 12 14 14 17 21 22 27 31 31 35 28 27 29
44 45 48 47 48 51 50 44 28 28 25 25 24 27 30 30 31 31 33 34 29 21 4 9 5 15 20 18 10 7 5 6 7 11 14 14 15 19 19 22 26 25 33 33 34 21 29
43 46 45 42 44 46 46 41 33 31 29 28 27 27 29 30 30 31 33 24 19 8 4 3 9 14 16 19 9 7 9 3 10 10 13 14 16 19 18 18 26 25 28 30 32 28 31
43 46 44 43 37 37 40 33 35 32 32 31 29 28 28 28 29 28 24 15 12 14 13 14 15 16 11 9 6 9 4 7 8 12 16 16 18 16 12 10 14 29 33 34 36 38 36
44 46 42 39 35 33 33 30 23 21 34 33 30 28 25 24 24 22 18 10 11 22 13 15 17 14 8 3 7 6 3 9 11 15 12 14 15 13 14 16 16 27 34 35 35 24 24
42 41 39 36 33 30 26 23 20 12 8 7 5 9 9 12 12 11 13 20 13 23 20 22 17 9 10 6 8 0 5 7 9 11 7 11 14 16 11 13 12 10 2 28 23 29 25
39 38 36 36 34 29 23 19 16 12 10 8 10 5 5 7 16 13 15 13 15 25 28 20 20 19 14 15 9 3 6 11 11 9 11 16 16 18 14 20 24 24 21 20 19 24 26
34 35 34 34 33 31 24 19 15 9 2 3 4 6 8 12 17 16 15 11 15 19 15 15 14 20 17 15 4 12 13 15 12 10 12 15 17 22 20 22 23 21 18 18 18 17 20
33 31 31 31 31 29 27 22 20 14 9 9 12 13 14 17 16 15 13 19 18 20 19 16 15 17 16 15 13 10 11 18 17 18 19 22 21 20 20 20 21 20 19 17 16 12 9
31 29 29 28 29 28 26 25 22 19 16 15 17 16 15 16 20 12 11 18 21 23 21 21 21 24 22 16 9 14 18 20 17 13 16 16 18 18 18 18 17 16 13 10 12 14 13
29 27 27 26 26 28 25 25 25 27 27 23 22 22 18 18 11 10 13 19 26 19 21 23 23 19 17 16 15 19 18 17 19 17 16 15 16 18 19 18 15 14 13 12 13 12 11
29 25 24 25 24 24 27 25 24 26 27 28 23 21 20 12 9 11 20 28 27 23 18 20 20 19 16 17 16 16 17 16 16 18 17 14 15 16 18 16 14 12 12 13 14 15 17
28 25 23 22 22 22 23 26 23 20 17 19 23 22 19 10 6 18 26 31 21 14 17 20 21 19 18 16 16 16 14 16 15 18 16 13 15 16 14 15 15 15 10 13 15 15 18
28 25 23 21 19 20 20 19 19 16 13 18 21 23 17 7 18 26 28 26 19 14 15 19 19 21 17 19 17 17 13 14 13 14 20 16 15 14 13 13 11 11 10 15 16 17 16
27 24 24 20 18 18 19 18 16 15 11 20 19 23 8 6 24 21 23 21 13 13 13 15 17 19 19 15 11 14 13 13 11 14 17 16 14 14 15 13 10 11 11 16 17 15 15
28 25 21 21 18 16 16 18 16 14 15 16 19 17 17 18 24 26 19 20 11 8 10 12 14 13 15 17 14 13 12 11 12 12 13 13 13 14 14 12 7 8 5 17 19 17 13
29 24 22 20 21 16 13 13 14 12 13 16 18 21 16 19 18 20 21 19 17 11 12 11 13 12 14 11 10 12 11 10 9 11 12 14 13 16 19 17 11 5 5 8 19 13 22
26 25 22 20 17 18 15 14 11 10 12 17 21 23 21 23 21 20 22 21 18 12 10 6 5 4 13 13 9 8 9 10 10 7 11 13 12 14 14 12 13 7 7 6 10 12 14
25 22 21 20 18 13 12 11 9 10 12 20 21 22 21 23 22 25 26 27 24 15 10 10 14 8 3 10 9 9 8 9 10 9 10 10 15 13 12 11 8 4 2 6 10 10 21
23 22 18 21 19 18 11 9 9 9 13 18 19 20 20 22 24 26 27 25 23 20 19 18 17 18 10 9 10 11 11 10 9 10 10 12 13 14 15 12 12 12 8 8 11 9 22
20 23 17 16 20 17 13 7 9 14 17 19 18 20 21 21 22 24 24 22 21 19 21 18 17 18 14 12 13 12 13 11 9 10 11 12 13 14 16 14 12 15 14 11 15 14 18
22 21 21 13 12 20 20 18 16 17 19 20 18 18 19 21 20 21 21 20 19 19 20 19 18 16 12 13 14 14 14 14 15 14 14 14 15 15 16 15 17 18 17 9 12 13 15
21 22 22 20 11 14 26 25 22 19 19 18 19 17 18 20 20 19 19 18 19 18 18 18 16 14 13 15 15 16 15 15 16 17 18 18 17 16 18 19 20 16 12 12 17 17 19
20 20 22 24 21 21 23 23 23 22 18 15 15 16 17 17 17 19 18 17 16 16 16 15 14 14 13 14 15 15 15 15 14 14 14 14 15 16 17 17 17 20 20 20 19 17 20
18 19 18 22 23 20 21 23 21 20 19 16 15 14 18 17 15 16 15 15 15 15 14 13 14 14 13 13 13 13 14 13 13 14 14 14 15 16 17 17 18 21 20 20 18 19 20
17 17 16 18 21 20 15 17 19 18 19 17 17 17 14 16 13 13 13 13 13 14 13 13 13 12 13 13 13 12 12 12 13 13 14 14 16 15 17 17 16 18 17 18 16 15 14
Wind_Direction
355 351 345 340 335 328 325 324 320 319 320 319 320 321 321 322 319 318 315 308 302 297 296 290 272 215 272 284 282 301 346 331 316 304 299 304 303 304 300 306 305 300 298 297 291 286 282
356 350 348 341 332 324 310 312 315 316 317 321 323 328 327 322 318 319 321 316 311 310 301 277 238 242 281 279 298 305 321 310 307 300 300 305 307 308 307 305 304 311 304 299 295 284 283
358 354 350 344 342 336 326 317 312 314 317 324 321 328 326 322 319 320 314 316 314 304 297 287 214 267 273 281 297 286 299 309 308 305 299 310 314 311 316 308 312 309 301 301 293 286 283
1 5 5 359 360 350 332 304 324 326 329 328 324 322 324 322 317 318 316 315 316 311 311 196 170 271 266 281 279 279 301 321 323 321 320 324 328 315 311 316 314 309 304 296 301 300 294
16 10 9 9 7 4 352 352 343 337 337 340 333 328 323 323 324 320 314 312 310 311 86 133 255 268 266 266 261 276 295 314 330 324 321 326 327 315 319 315 312 309 297 295 296 304 298
19 18 14 14 16 21 19 10 348 349 338 339 335 334 329 327 323 312 312 324 322 19 48 10 269 270 267 262 252 265 292 338 320 333 327 323 318 314 316 312 305 306 301 299 294 302 296
21 19 21 24 27 25 27 37 351 340 339 337 341 337 335 328 319 328 331 327 313 283 273 262 257 269 242 251 254 259 290 318 336 324 312 317 313 312 312 311 310 298 293 293 291 290 296
27 28 29 29 30 30 31 35 41 24 351 352 357 357 358 356 334 333 336 318 295 228 234 252 227 233 209 215 252 268 314 314 314 312 329 328 319 321 317 314 314 297 277 274 288 312 316
30 30 31 31 33 34 33 35 37 38 44 57 78 75 78 250 231 212 184 190 234 206 222 210 224 228 222 265 276 356 89 343 335 324 339 332 328 343 336 323 324 333 281 279 265 274 256
32 32 35 35 35 33 31 32 33 36 48 68 75 108 225 200 153 171 177 212 224 185 168 204 212 219 228 233 289 12 90 322 336 353 329 320 320 317 329 202 207 233 217 223 233 267 311
35 36 39 39 38 38 35 30 23 6 358 132 188 166 154 141 145 151 171 205 195 193 177 189 211 204 215 240 324 267 274 289 319 338 334 324 310 248 221 212 201 214 222 224 237 236 249
37 40 42 41 41 40 38 33 36 47 81 140 143 135 133 129 139 147 171 166 175 172 174 192 207 207 210 224 249 267 278 226 226 226 212 218 232 229 212 218 213 226 239 240 228 206 175
39 42 43 43 44 43 42 44 49 66 79 104 131 136 140 138 118 144 169 163 150 147 172 174 182 181 184 201 233 220 205 197 211 271 216 217 208 219 217 211 206 186 206 220 185 173 180
40 42 43 44 46 47 45 50 60 74 85 95 112 122 128 118 134 145 158 153 135 148 155 161 165 175 184 194 205 195 198 194 182 204 211 191 191 197 193 188 193 201 192 194 188 183 183
40 44 44 46 49 49 52 56 63 80 86 89 103 113 114 116 131 135 131 123 133 147 163 167 168 171 180 182 192 193 193 193 192 188 185 195 188 201 189 187 193 199 188 192 197 169 157
39 44 47 47 49 52 53 59 66 74 84 96 101 103 99 107 114 119 114 117 144 159 163 166 164 172 173 185 187 193 193 182 193 189 201 201 186 182 188 181 192 185 209 189 180 174 159
37 42 45 48 48 50 53 56 62 73 79 91 96 90 90 87 111 103 105 125 144 160 166 160 157 155 171 162 174 168 187 188 212 207 171 181 179 175 183 177 163 174 183 185 191 170 167
36 39 43 47 48 50 52 55 61 68 67 79 84 79 91 85 97 110 116 140 164 160 163 163 156 150 155 184 197 171 175 192 215 198 172 179 181 170 162 173 197 186 170 174 178 173 170
33 36 41 43 48 47 50 55 60 65 70 85 84 84 81 86 89 68 134 140 178 177 170 174 163 164 163 158 176 181 191 201 201 200 190 191 179 168 162 166 184 163 176 171 171 172 180
30 35 37 42 44 44 42 45 55 62 73 85 79 73 83 89 105 124 134 140 162 178 163 173 171 170 161 164 179 181 191 193 212 202 196 183 164 151 144 145 149 134 79 135 159 159 150
29 31 35 37 42 43 46 51 51 60 75 87 77 75 83 81 96 116 132 146 155 183 181 199 192 202 180 172 184 195 201 203 206 233 198 186 175 164 163 163 153 128 113 106 144 165 161
25 30 32 34 36 37 37 40 52 66 89 82 79 79 88 88 99 110 124 127 131 164 191 181 163 185 251 181 190 205 213 210 196 224 204 208 177 178 179 180 188 192 147 145 145 144 141
22 27 31 29 32 34 36 34 58 75 90 86 95 94 90 95 102 111 119 129 131 143 145 150 158 154 187 202 216 216 218 224 240 230 222 203 195 180 174 215 211 195 203 192 178 189 137
19 21 29 29 28 33 32 32 76 78 84 92 98 94 86 96 110 115 122 125 129 138 137 147 156 156 181 216 209 222 227 247 257 264 264 227 229 222 185 214 262 226 227 241 22 14 51
13 18 24 30 26 31 36 53 73 76 77 87 96 94 92 95 109 122 126 128 133 134 134 141 149 159 207 202 194 214 242 258 249 264 272 272 270 181 203 208 207 205 248 59 20 65 100
9 12 17 28 33 43 39 47 65 77 78 88 93 99 94 96 110 126 126 132 131 132 137 140 158 177 177 160 154 157 164 183 196 246 302 315 330 272 218 221 212 280 341 349 254 189 176
3 9 12 15 30 41 48 56 59 66 77 89 97 95 94 96 115 118 119 129 138 136 140 142 148 148 153 153 158 158 166 178 178 186 190 202 199 190 191 194 200 200 199 207 188 194 183
355 1 10 9 18 37 46 52 60 61 61 75 70 95 71 87 114 122 118 130 146 139 132 154 144 144 144 143 149 161 167 170 177 179 179 181 181 182 180 184 191 179 187 170 184 187 166
345 356 4 8 11 18 52 58 55 65 53 65 73 45 92 65 85 136 149 142 135 142 138 142 126 126 136 137 142 153 163 165 168 192 170 187 169 183 170 184 174 166 175 178 148 131 128